Theta_e
310 316 319 320 320 321 320 322 325 323 322 332 332 332 330 330 336 337 335 335 334 333 330 328 326 326 327 329 329 329 329 327 326 328 330 327 325 322 322 322 319 317 316 314
312 318 316 319 320 321 319 322 323 320 320 330 333 331 330 332 334 336 336 336 334 334 333 330 327 326 325 326 328 328 328 326 327 330 329 328 322 319 318 315 313 312 311 307
314 316 317 319 320 321 318 318 322 322 323 329 331 332 330 330 331 334 334 335 333 333 334 333 330 327 325 325 326 327 326 326 330 331 329 324 318 313 310 307 305 304 304 302
314 314 319 320 321 318 320 318 318 320 324 334 330 335 331 331 330 334 335 333 333 332 330 332 330 328 327 326 326 326 327 329 333 331 331 327 320 310 305 304 301 300 299 298
315 317 318 320 319 317 320 320 320 319 321 327 334 331 333 330 333 332 336 334 332 332 330 331 325 321 322 326 327 328 330 331 332 331 330 325 314 309 303 300 298 297 297 297
314 315 317 319 319 319 320 320 320 317 318 327 332 332 335 332 333 328 334 334 333 332 329 321 316 316 315 321 327 329 330 329 327 327 323 322 316 306 300 297 297 296 296 296
312 316 315 317 322 319 319 320 325 326 327 330 325 328 331 329 328 327 332 335 334 330 322 317 315 313 310 312 318 322 323 321 322 322 318 315 311 303 299 297 297 296 295 294
312 319 317 318 322 322 321 319 322 324 331 329 326 328 330 321 324 322 329 332 333 325 321 318 314 310 307 305 308 312 315 312 312 316 311 307 303 301 299 298 297 296 296 294
314 317 317 318 319 319 319 326 320 323 320 326 325 322 325 324 329 328 331 331 325 320 317 314 309 307 305 305 304 308 307 307 307 307 306 304 302 300 298 297 296 298 295 293
313 314 316 317 315 320 322 320 325 323 327 328 330 327 331 326 329 326 325 322 318 313 309 307 305 303 302 303 304 305 307 306 305 304 303 301 299 299 297 299 300 298 299 291
309 313 313 316 314 317 322 324 323 323 324 330 331 327 311 314 326 324 321 315 313 312 309 306 303 301 301 301 301 301 302 302 301 300 301 299 297 298 300 304 305 298 291 289
307 311 312 314 312 314 315 321 322 323 325 320 324 328 309 310 320 321 316 312 310 309 307 304 301 299 298 297 297 298 297 297 298 299 297 299 303 307 305 301 293 290 289 288
304 310 308 313 316 316 316 317 321 319 316 318 324 328 315 316 316 313 310 309 307 306 304 302 299 299 298 297 296 296 296 300 299 301 306 307 307 303 296 291 291 290 289 288
307 310 313 317 318 315 319 318 320 320 319 319 320 314 317 316 315 311 308 305 304 303 302 300 299 299 297 297 297 298 298 296 300 303 305 303 301 296 292 291 290 289 288 287
305 308 310 310 312 312 315 319 320 323 322 319 318 312 317 315 313 310 307 305 304 303 301 301 300 299 299 299 298 298 299 302 304 303 302 299 295 293 291 291 290 288 288 287
302 305 310 307 311 312 312 313 318 320 321 319 313 312 308 312 310 309 307 306 305 304 303 301 301 302 301 300 300 300 302 303 302 300 297 295 293 292 291 290 289 288 287 286
301 305 307 306 308 309 305 309 317 319 318 320 317 311 312 312 312 310 308 307 307 306 304 303 304 303 303 302 302 302 303 302 299 297 295 293 292 291 290 290 289 288 287 286
300 303 305 308 308 306 305 303 312 318 318 317 310 308 308 311 308 309 308 307 307 306 305 304 305 305 304 304 304 304 302 300 296 295 294 293 292 291 290 289 288 287 286 285
298 301 307 309 310 305 307 309 317 318 319 315 312 308 306 305 305 304 303 307 306 306 306 306 306 306 306 306 306 304 301 299 296 296 295 293 292 291 289 289 288 286 285 284
296 299 303 307 306 306 304 302 304 312 317 302 306 307 306 305 307 304 300 300 302 305 308 308 308 308 307 305 304 302 300 297 296 297 296 293 291 290 290 289 288 287 285 285
299 302 302 305 309 303 298 297 301 317 312 299 302 306 305 307 301 298 296 294 294 296 300 303 306 305 304 303 302 300 298 297 297 296 294 292 291 291 290 289 288 286 285 284
297 298 303 304 305 306 295 304 312 300 298 300 301 303 300 297 296 294 293 292 292 292 295 296 298 297 297 298 296 295 295 296 295 295 293 292 292 291 290 288 287 286 284 283
304 301 300 304 302 294 294 298 296 295 297 299 300 298 297 296 295 293 292 291 290 291 292 294 295 295 295 295 295 294 295 294 294 293 293 292 291 290 289 288 286 284 283 282
298 295 295 295 295 295 295 295 293 293 295 295 295 296 295 295 293 292 291 291 291 291 292 293 293 293 293 294 294 294 293 293 292 292 292 291 290 289 288 286 285 283 282 281
295 295 294 294 295 296 294 292 292 292 291 292 291 292 293 292 292 291 291 290 290 291 290 291 291 291 291 291 291 291 290 290 290 290 290 290 289 288 287 286 285 284 284 282
293 294 295 295 292 294 294 291 290 291 291 290 291 290 289 291 290 289 288 288 288 289 289 290 289 289 289 289 290 289 289 289 288 288 288 288 287 287 286 285 284 284 283 281
Wind_Speed
13 13 12 25 13 7 3 4 8 10 10 23 26 23 10 20 16 14 14 15 16 16 14 25 29 29 32 33 33 35 31 30 28 27 26 25 22 18 15 11 11 10 10 9
12 20 13 9 11 10 6 7 12 11 9 23 23 30 18 7 15 18 18 18 15 14 14 20 26 27 32 34 36 35 34 31 30 29 26 26 23 17 15 14 13 12 11 12
14 6 9 10 13 14 6 4 4 7 4 21 15 32 21 7 4 10 13 17 18 18 17 15 18 25 30 32 34 36 34 33 30 29 27 24 21 20 18 15 15 14 14 14
9 9 12 16 15 8 8 11 7 7 4 6 24 7 27 18 11 13 13 12 15 15 10 13 15 20 25 29 34 33 32 32 31 30 27 28 26 23 17 18 18 17 15 14
5 7 9 22 14 10 5 10 3 4 10 4 12 5 12 23 13 11 16 16 15 16 14 10 12 21 22 29 31 31 31 30 29 30 30 29 25 21 24 22 21 18 16 14
4 1 2 3 12 8 13 4 1 1 1 3 8 3 5 24 24 15 14 17 15 14 14 11 16 25 24 28 29 28 29 27 26 26 28 28 28 29 28 24 22 19 16 14
3 5 5 5 10 10 7 6 2 3 3 1 4 4 2 23 21 17 14 16 17 16 18 17 13 17 20 24 27 25 25 25 24 25 24 25 27 28 29 26 22 19 17 14
2 3 1 2 1 6 10 7 2 3 1 2 7 5 2 4 8 12 11 14 17 13 12 16 17 18 18 18 23 25 24 24 25 25 26 25 27 27 24 23 21 17 15 12
4 2 1 5 4 1 4 3 5 3 2 0 2 2 2 3 7 9 12 16 16 14 13 13 14 19 23 24 20 24 27 26 25 26 27 27 27 26 24 20 16 14 13 12
5 3 4 2 3 2 3 5 2 2 1 1 1 2 2 4 7 9 12 14 14 13 13 11 11 13 21 25 25 23 24 27 28 26 26 27 25 25 22 18 14 11 9 11
7 3 6 2 5 3 4 2 3 2 2 0 1 3 4 2 7 11 11 11 12 14 13 11 12 15 18 21 21 21 22 25 27 30 28 27 26 21 17 13 10 10 11 11
3 2 2 2 4 1 3 3 2 2 2 2 1 3 4 5 8 11 12 13 11 11 11 10 13 15 16 18 21 23 27 27 27 28 29 23 19 14 12 13 13 12 10 9
6 4 2 2 3 3 3 4 3 3 4 1 1 1 5 10 11 10 13 11 10 11 10 9 10 11 14 16 21 23 27 30 28 25 24 22 16 15 14 13 13 11 10 10
2 3 2 4 4 3 3 3 3 3 3 1 1 3 3 4 10 9 9 9 9 9 10 9 8 12 16 20 24 29 28 29 27 23 19 16 15 14 14 13 11 9 10 10
5 3 3 2 3 3 5 5 3 1 1 3 4 3 4 6 8 9 10 10 10 9 8 9 10 13 17 19 20 20 23 23 22 18 15 15 15 14 15 14 12 12 11 10
10 4 5 3 3 3 3 7 0 2 2 1 2 2 1 5 8 7 10 10 9 8 9 10 10 14 16 18 19 23 24 20 19 18 18 16 16 16 15 13 13 12 11 11
6 6 5 4 5 7 4 5 5 2 0 2 2 2 3 4 6 9 9 9 10 10 11 12 11 15 16 21 26 26 21 20 21 20 18 18 16 16 16 14 14 13 13 14
5 6 3 3 4 2 4 4 3 4 2 3 3 2 4 4 3 5 4 7 8 10 11 9 12 16 19 23 23 21 20 21 22 20 18 17 18 18 17 16 15 15 16 17
4 4 3 2 2 5 2 3 2 2 2 1 4 2 4 4 5 6 4 4 6 7 10 14 19 22 25 23 23 20 19 20 20 20 20 21 21 20 19 18 17 17 18 19
3 6 2 3 1 2 2 5 6 4 0 3 3 2 4 3 2 2 3 3 4 7 11 17 21 22 21 22 20 19 21 22 24 24 23 21 21 20 20 19 19 19 21 20
4 2 3 3 3 5 4 8 6 2 1 5 4 2 4 2 1 4 4 6 7 8 6 6 12 14 14 15 16 19 21 24 23 20 19 21 21 22 21 19 21 22 21 22
5 5 3 0 2 4 5 4 2 2 4 3 3 2 5 7 6 6 6 6 9 10 10 8 7 5 4 7 11 14 17 17 17 17 18 20 20 21 21 22 22 23 23 23
1 2 3 4 3 2 4 2 3 3 3 4 2 4 7 7 5 6 5 5 8 10 9 8 7 5 2 3 6 9 11 11 12 15 17 18 18 20 22 23 24 24 24 25
2 3 0 2 4 4 5 4 5 4 3 4 6 6 6 8 7 6 6 5 7 9 10 9 7 5 4 3 3 6 8 9 11 15 16 18 20 21 22 24 26 27 28 29
1 4 1 1 2 1 6 6 5 6 8 10 9 6 8 8 6 5 5 6 7 7 6 5 4 5 6 5 5 6 8 11 13 15 17 19 21 23 25 27 29 32 34 33
2 1 0 1 3 1 2 5 6 8 7 8 8 8 9 7 7 6 6 7 6 7 7 7 8 8 8 8 8 8 10 13 15 19 21 22 24 26 27 29 34 33 34 33
Wind_Direction
262 232 233 200 201 171 160 212 243 247 282 204 200 223 246 176 193 179 183 179 180 183 172 173 174 178 184 189 189 191 188 179 177 172 163 153 143 140 135 134 136 137 136 134
253 241 202 186 167 185 169 225 249 288 246 205 207 219 232 182 180 178 183 178 175 163 161 165 169 174 179 185 189 186 186 179 181 180 173 165 152 141 137 137 135 134 136 132
240 265 199 153 167 171 171 171 220 262 319 221 205 206 230 217 198 195 193 188 175 165 164 162 166 171 173 178 183 185 187 185 185 183 175 158 145 137 133 134 129 125 126 122
258 229 203 178 185 174 183 178 215 271 254 232 190 212 219 218 212 177 184 183 189 179 165 161 165 173 173 177 185 187 188 188 190 189 179 171 164 149 153 145 132 127 125 121
225 177 235 182 188 177 188 167 225 332 265 247 179 150 196 211 222 205 185 185 185 188 163 156 139 135 152 172 180 185 187 191 188 185 181 177 164 156 148 143 136 129 121 114
315 236 219 242 160 172 133 103 326 269 161 229 197 148 187 191 203 211 189 184 175 171 135 123 123 126 130 150 157 165 172 171 178 181 181 177 163 155 150 146 139 132 126 119
333 268 164 223 128 127 100 82 214 237 211 187 243 115 274 201 193 207 191 177 165 154 144 133 137 130 128 134 144 150 154 153 162 172 170 167 161 159 155 150 145 143 133 123
254 147 19 355 360 152 126 160 140 292 358 100 132 187 123 13 162 213 185 164 150 146 150 142 144 132 119 119 141 144 149 147 157 158 157 158 158 153 151 151 149 142 132 127
339 20 131 15 346 134 180 215 160 195 219 98 149 266 315 43 82 133 141 146 145 141 135 135 129 133 130 133 138 143 147 145 149 153 156 156 153 151 151 149 147 143 138 135
317 357 16 5 330 89 204 142 129 17 19 18 201 93 55 140 131 115 126 133 126 122 119 118 121 125 132 140 149 152 154 154 154 150 150 150 148 147 151 151 155 150 144 149
2 5 327 16 19 358 39 129 46 164 115 234 134 70 223 264 161 137 124 123 129 131 126 125 121 121 132 141 151 147 147 150 149 150 149 154 152 154 154 161 164 166 153 153
322 314 65 296 298 34 35 318 283 119 317 338 336 74 330 224 139 136 126 124 123 119 122 128 131 132 137 138 141 146 151 151 148 150 157 152 156 170 180 175 164 156 156 158
329 348 17 249 179 150 58 311 303 94 81 254 61 89 19 86 109 127 129 129 130 125 124 128 130 140 133 126 138 145 146 143 157 168 167 171 177 178 177 171 167 168 168 175
267 321 3 16 13 353 344 325 354 62 77 322 319 144 82 83 119 123 121 125 126 127 133 133 133 137 138 144 156 159 165 176 178 178 181 180 181 178 182 181 180 178 185 190
17 332 8 299 318 23 315 337 314 238 6 74 318 79 169 164 154 149 135 130 132 138 147 154 150 150 160 164 172 179 180 182 187 193 195 190 184 187 194 191 189 193 197 202
348 324 350 293 243 185 286 291 237 293 354 21 84 73 356 110 109 131 147 148 152 155 157 155 156 162 169 179 183 188 193 199 203 203 199 194 197 199 201 200 201 206 208 213
342 350 351 293 342 349 344 242 184 140 159 65 37 30 131 111 140 159 158 162 163 164 166 172 171 175 187 194 195 201 207 210 206 202 201 205 206 209 212 212 213 217 220 223
317 335 329 297 359 9 270 333 304 140 140 71 320 42 58 127 89 106 143 155 161 167 171 172 176 189 206 207 210 216 217 210 205 206 212 215 217 220 221 221 224 227 228 231
210 310 314 320 257 288 349 353 39 134 142 153 280 68 61 97 91 42 20 161 168 168 170 180 190 199 205 214 218 218 217 215 216 220 225 227 226 226 225 228 231 234 235 237
207 265 335 310 332 207 281 316 347 302 310 10 301 162 142 148 98 223 14 43 87 119 169 188 202 211 215 218 218 217 218 216 223 229 234 237 235 234 235 239 239 242 243 248
164 185 208 292 285 292 317 302 309 95 322 331 334 95 149 98 45 102 69 49 66 75 93 160 196 207 215 211 212 218 221 225 235 243 243 239 238 240 244 245 245 247 250 252
157 144 170 202 297 310 342 314 26 320 311 326 341 61 93 104 85 76 63 54 60 61 64 77 109 122 166 201 211 222 231 244 251 249 244 244 246 247 247 249 253 254 253 253
187 162 186 181 231 306 305 322 323 288 285 338 32 69 115 110 84 81 80 67 68 74 78 80 92 102 121 205 224 244 262 267 266 255 253 255 255 254 254 253 255 253 253 252
302 50 103 60 336 347 338 352 18 355 46 29 55 66 72 100 89 95 84 70 69 64 60 64 64 66 54 13 288 276 277 272 268 264 262 260 258 260 259 257 257 256 255 254
251 348 57 325 317 307 38 24 358 39 52 63 56 62 83 90 80 95 81 71 66 66 63 59 43 26 20 351 329 302 290 284 278 275 271 269 268 267 267 264 265 264 267 265
0 316 350 240 327 50 19 11 11 50 44 43 74 61 44 68 92 93 80 69 71 60 52 42 30 12 358 341 328 320 303 289 285 281 278 279 279 278 276 276 278 274 273 272